Printer-friendly version

IAU Minor Planet Center

Minor Planet Center

MPEC 2000-Q28: 2000 QS7

The following Minor Planet Electronic Circular may be linked-to from your own Web pages, but must not otherwise be redistributed electronically.


Read MPEC 2000-Q27 Read MPEC 2000-Q29


M.P.E.C. 2000-Q28                                Issued 2000 Aug. 27, 16:48 UT

     The Minor Planet Electronic Circulars contain information on unusual
         minor planets and routine data on comets.  They are published
   on behalf of Commission 20 of the International Astronomical Union by the
          Minor Planet Center, Smithsonian Astrophysical Observatory,
                          Cambridge, MA 02138, U.S.A.

             Prepared using the Tamkin Foundation Computer Network

             BMARSDEN@CFA.HARVARD.EDU or GWILLIAMS@CFA.HARVARD.EDU
          URL http://cfa-www.harvard.edu/iau/mpc.html  ISSN 1523-6714

                                   2000 QS7

Observations:
     K00Q07S* C2000 08 24.13312 16 45 43.57 -18 27 59.6          18.3        704
     K00Q07S  C2000 08 24.14675 16 45 40.22 -18 28 07.7          18.4        704
     K00Q07S  C2000 08 24.16078 16 45 36.83 -18 28 15.1          18.6        704
     K00Q07S  C2000 08 24.17523 16 45 33.30 -18 28 22.5          18.7        704
     K00Q07S  C2000 08 24.18849 16 45 30.19 -18 28 29.7          18.6        704
     K00Q07S  C2000 08 25.12632 16 41 54.24 -18 37 49.8          19.6 V      734
     K00Q07S  C2000 08 25.12999 16 41 53.53 -18 37 52.2          19.1 V      734
     K00Q07S  C2000 08 25.13385 16 41 52.54 -18 37 57.4          19.4 V      734
     K00Q07S  C2000 08 26.79784 16 35 08.16 -18 55 06.1                      046
     K00Q07S  C2000 08 26.80008 16 35 07.58 -18 55 07.7          17.8 R      046
     K00Q07S  C2000 08 26.80110 16 35 07.30 -18 55 09.0                      046
     K00Q07S  C2000 08 26.80214 16 35 07.02 -18 55 10.2                      046
     K00Q07S  C2000 08 27.09396 16 33 52.85 -18 58 10.4          20.3 V      734
     K00Q07S  C2000 08 27.09756 16 33 51.82 -18 58 12.8          19.8 V      734

Observer details:
046 Klet.  Observers J. Ticha, M. Tichy, Z. Moravec.  0.57-m f/5.2 reflector
    + CCD.
704 Lincoln Laboratory ETS, New Mexico.  Observers M. Blythe, F. Shelly,
    M. Bezpalko, M. Elowitz, R. Huber, L. Manguso.  Measurers J. Stuart,
    R. Sayer, J. B. Evans, H. Viggh.  1.0-m f/2.15 reflector + CCD.
734 Farpoint Observatory.  Observer G. Hug.  0.30-m Schmidt-Cassegrain + CCD.

Orbital elements:
2000 QS7                                                             PHA 0.001
Epoch 2000 Aug. 24.0 TT = JDT 2451780.5                 Williams
M 350.24788              (2000.0)            P               Q
n   0.25180861     Peri.  218.61564     +0.97611015     -0.21597177
a   2.4836420      Node   153.82751     +0.21032391     +0.91174727
e   0.6339583      Incl.    3.08965     +0.05452362     +0.34938963
P   3.91           H   20.7           G   0.15
From 14 observations 2000 Aug. 24-27.

Ephemeris:
2000 QS7                 a,e,i = 2.48, 0.63, 3                   q = 0.9091
Date    TT    R. A. (2000) Decl.     Delta      r     Elong.  Phase     V
2000 08 24    16 46.25   -18 26.1    0.175    1.059   101.3    69.3    19.5
2000 08 29    16 25.40   -19 18.0    0.154    1.026    91.8    79.6    19.5
2000 09 03    15 58.35   -20 14.8    0.133    0.996    80.8    91.6    19.6
2000 09 08    15 20.71   -21 04.5    0.114    0.970    67.6   106.1    19.9
2000 09 13    14 26.82   -21 11.4    0.098    0.948    51.0   124.4    20.7

2000 09 23    11 56.11   -14 58.8    0.089    0.918    14.9   163.6    27.7
2000 10 03    10 05.20   -04 45.4    0.119    0.909    37.9   137.5    22.4

2000 10 13    09 18.17   +01 00.8    0.168    0.923    59.4   111.6    20.9
2000 10 18    09 06.81   +02 40.1    0.194    0.938    67.2   101.8    20.7
2000 10 23    08 59.46   +03 51.7    0.219    0.958    74.1    93.2    20.6
2000 10 28    08 54.35   +04 46.2    0.242    0.983    80.4    85.5    20.6
2000 11 02    08 50.27   +05 30.5    0.264    1.011    86.5    78.4    20.6
2000 11 07    08 46.46   +06 09.6    0.284    1.043    92.5    71.7    20.6
2000 11 12    08 42.36   +06 47.0    0.303    1.077    98.6    65.3    20.6

2000 11 22    08 31.81   +08 06.4    0.336    1.153   111.4    52.9    20.6
2000 12 02    08 16.80   +09 41.3    0.368    1.236   125.3    40.6    20.6
2000 12 12    07 57.71   +11 32.5    0.406    1.322   140.2    28.4    20.6
2000 12 22    07 36.64   +13 30.2    0.456    1.411   155.5    16.8    20.6
2001 01 01    07 16.62   +15 21.4    0.523    1.500   169.5     6.9    20.7
2001 01 11    07 00.44   +16 56.3    0.610    1.590   171.5     5.3    21.1
2001 01 21    06 49.43   +18 12.2    0.719    1.678   160.2    11.4    21.8

Gareth V. Williams           (C) Copyright 2000 MPC           M.P.E.C. 2000-Q28

Read MPEC 2000-Q27 Read MPEC 2000-Q29


Our Web policy. Index to the CBAT/MPC/ICQ pages.


Valid HTML 4.01!